User: anonymous   Login
Location: Brabourne
(51.1333°N, 1.0000°E)
Time: 22:46:37
(UTC+00:00)
Language:

METEOR 2-15 DEB - Orbit

View from above orbital plane
View from above orbital plane
View from above satellite
View from above satellite

Ground track
Ground track

The orbit data is extracted from the following two-line orbital elements,

1 28975U 87001C   22219.97140312  .00000937  00000-0  65360-3 0  9992
2 28975  82.4592  94.4775 0020033  22.3436  40.8052 13.97581740465736
Epoch (UTC): 07 August 2022 23:18:49
Eccentricity: 0.0020033
inclination: 82.4592°
perigee height: 887 km
apogee height: 917 km
right ascension of ascending node: 94.4775°
argument of perigee: 22.3436°
revolutions per day: 13.97581740
mean anomaly at epoch: 40.8052°
orbit number at epoch: 46573

The dashed part of the orbit path shows where the satellite is in the earth's shadow,  

DLR